Tracking 22993 objects as of 12-May-2021
HD Live streaming from Space Station
objects crossing your sky now

COSMOS 2488

Track COSMOS 2488 now!
10-day predictions
COSMOS 2488 is classified as:


NORAD ID: 39483
Int'l Code: 2013-076A
Perigee: 1,486.1 km
Apogee: 1,517.1 km
Inclination: 82.5 °
Period: 115.9 minutes
Semi major axis: 7872 km
RCS: Unknown
Launch date: December 25, 2013
Source: Commonwealth of Independent States (former USSR) (CIS)
Launch site: PLESETSK MISSILE AND SPACE COMPLEX (PKMTR)

COSMOS 2488 is a Russian military satellite apparently designed to relay messages between military users posted in remote areas.
aabbcc
Your satellite tracking list
Your tracking list is empty




NASA's NSSDC Master Catalog

Two Line Element Set (TLE):
1 39483U 13076A   21131.81211472  .00000008  00000-0 -10207-4 0  9991
2 39483  82.4837 249.2953 0019707 190.7983 169.2680 12.42876729334736
Source of the keplerian elements: AFSPC